Time,TemperatureF,DewpointF,PressureIn,WindDirection,WindDirectionDegrees,WindSpeedMPH,WindSpeedGustMPH,Humidity,HourlyPrecipIn,Conditions,Clouds,dailyrainin,SoftwareType,DateUTC
2013-06-26 00:00:00,77.0,61.0,0.00,WSW,252,2.0,11.0,58,0.00,,,0.00,Weather View 32 v70,2013-06-26 04:00:00,
2013-06-26 00:15:00,76.5,62.4,0.00,WSW,256,0.0,11.0,62,0.00,,,0.00,Weather View 32 v70,2013-06-26 04:15:00,
2013-06-26 00:22:00,76.5,62.4,0.00,WSW,256,0.0,11.0,62,0.00,,,0.00,Weather View 32 v70,2013-06-26 04:22:00,
2013-06-26 00:30:00,75.9,62.8,0.00,West,267,4.0,8.0,64,0.00,,,0.00,Weather View 32 v70,2013-06-26 04:30:00,
2013-06-26 00:45:00,75.7,62.7,0.00,West,269,3.0,7.0,64,0.00,,,0.00,Weather View 32 v70,2013-06-26 04:45:00,
2013-06-26 01:00:00,75.6,62.5,0.00,West,277,2.0,6.0,64,0.00,,,0.00,Weather View 32 v70,2013-06-26 05:00:00,
2013-06-26 01:15:00,75.6,62.0,0.00,SW,225,2.0,6.0,63,0.00,,,0.00,Weather View 32 v70,2013-06-26 05:15:00,
2013-06-26 01:22:00,75.6,62.0,0.00,SW,225,2.0,6.0,63,0.00,,,0.00,Weather View 32 v70,2013-06-26 05:22:00,
2013-06-26 01:30:00,75.6,62.0,0.00,West,274,3.0,6.0,63,0.00,,,0.00,Weather View 32 v70,2013-06-26 05:30:00,
2013-06-26 01:45:00,75.6,62.5,0.00,West,281,0.0,4.0,64,0.00,,,0.00,Weather View 32 v70,2013-06-26 05:45:00,
2013-06-26 02:00:00,75.2,63.0,0.00,WSW,256,4.0,5.0,66,0.00,,,0.00,Weather View 32 v70,2013-06-26 06:00:00,
2013-06-26 02:15:00,74.8,63.1,0.00,West,280,6.0,7.0,67,0.00,,,0.00,Weather View 32 v70,2013-06-26 06:15:00,
2013-06-26 02:23:00,74.8,63.1,0.00,West,280,6.0,7.0,67,0.00,,,0.00,Weather View 32 v70,2013-06-26 06:23:00,
2013-06-26 02:30:00,74.7,62.5,0.00,NW,309,3.0,8.0,66,0.00,,,0.00,Weather View 32 v70,2013-06-26 06:30:00,
2013-06-26 02:45:00,74.8,62.2,0.00,WNW,287,4.0,8.0,65,0.00,,,0.00,Weather View 32 v70,2013-06-26 06:45:00,
2013-06-26 03:00:00,74.7,61.2,0.00,West,266,3.0,11.0,63,0.00,,,0.00,Weather View 32 v70,2013-06-26 07:00:00,
2013-06-26 03:15:00,74.8,60.4,0.00,NW,305,4.0,11.0,61,0.00,,,0.00,Weather View 32 v70,2013-06-26 07:15:00,
2013-06-26 03:24:00,74.8,60.4,0.00,NW,305,4.0,11.0,61,0.00,,,0.00,Weather View 32 v70,2013-06-26 07:24:00,
2013-06-26 03:30:00,74.7,60.3,0.00,NW,309,5.0,11.0,61,0.00,,,0.00,Weather View 32 v70,2013-06-26 07:30:00,
2013-06-26 03:45:00,74.5,59.6,0.00,WNW,300,5.0,11.0,60,0.00,,,0.00,Weather View 32 v70,2013-06-26 07:45:00,
2013-06-26 04:00:00,74.3,59.5,0.00,NNE,12,3.0,9.0,60,0.00,,,0.00,Weather View 32 v70,2013-06-26 08:00:00,
2013-06-26 04:15:00,74.5,59.6,0.00,NW,315,4.0,9.0,60,0.00,,,0.00,Weather View 32 v70,2013-06-26 08:15:00,
2013-06-26 04:24:00,74.5,59.6,0.00,NW,315,4.0,9.0,60,0.00,,,0.00,Weather View 32 v70,2013-06-26 08:24:00,
2013-06-26 04:30:00,74.3,59.9,0.00,WNW,292,4.0,9.0,61,0.00,,,0.00,Weather View 32 v70,2013-06-26 08:30:00,
2013-06-26 04:45:00,74.1,59.8,0.00,West,279,3.0,8.0,61,0.00,,,0.00,Weather View 32 v70,2013-06-26 08:45:00,
2013-06-26 05:00:00,73.9,59.1,0.00,WNW,284,4.0,5.0,60,0.00,,,0.00,Weather View 32 v70,2013-06-26 09:00:00,
2013-06-26 05:15:00,73.6,58.3,0.00,West,273,3.0,5.0,59,0.00,,,0.00,Weather View 32 v70,2013-06-26 09:15:00,
2013-06-26 05:30:00,73.2,58.9,0.00,West,265,4.0,6.0,61,0.00,,,0.00,Weather View 32 v70,2013-06-26 09:30:00,
2013-06-26 05:45:00,72.9,58.6,0.00,West,273,4.0,7.0,61,0.00,,,0.00,Weather View 32 v70,2013-06-26 09:45:00,
2013-06-26 06:00:00,72.5,58.7,0.00,West,270,4.0,7.0,62,0.00,,,0.00,Weather View 32 v70,2013-06-26 10:00:00,
2013-06-26 06:15:00,72.3,59.0,0.00,West,270,2.0,7.0,63,0.00,,,0.00,Weather View 32 v70,2013-06-26 10:15:00,
2013-06-26 06:30:00,72.5,59.1,0.00,WSW,252,3.0,7.0,63,0.00,,,0.00,Weather View 32 v70,2013-06-26 10:30:00,
2013-06-26 06:45:00,72.3,59.4,0.00,WSW,250,5.0,6.0,64,0.00,,,0.00,Weather View 32 v70,2013-06-26 10:45:00,
2013-06-26 07:00:00,72.3,59.4,0.00,West,277,5.0,8.0,64,0.00,,,0.00,Weather View 32 v70,2013-06-26 11:00:00,
2013-06-26 07:15:00,72.7,59.8,0.00,WNW,294,4.0,8.0,64,0.00,,,0.00,Weather View 32 v70,2013-06-26 11:15:00,
2013-06-26 07:30:00,73.0,60.1,0.00,West,269,4.0,8.0,64,0.00,,,0.00,Weather View 32 v70,2013-06-26 11:30:00,
2013-06-26 07:45:00,73.6,58.3,0.00,WSW,251,3.0,8.0,59,0.00,,,0.00,Weather View 32 v70,2013-06-26 11:45:00,
2013-06-26 08:00:00,74.3,58.5,0.00,West,272,3.0,6.0,58,0.00,,,0.00,Weather View 32 v70,2013-06-26 12:00:00,
2013-06-26 08:15:00,74.3,59.5,0.00,NNW,330,0.0,6.0,60,0.00,,,0.00,Weather View 32 v70,2013-06-26 12:15:00,
2013-06-26 08:30:00,75.2,58.9,0.00,WSW,258,6.0,6.0,57,0.00,,,0.00,Weather View 32 v70,2013-06-26 12:30:00,
2013-06-26 08:45:00,76.5,55.8,0.00,WNW,293,5.0,6.0,49,0.00,,,0.00,Weather View 32 v70,2013-06-26 12:45:00,
2013-06-26 09:00:00,78.4,55.9,0.00,NW,318,0.0,6.0,46,0.00,,,0.00,Weather View 32 v70,2013-06-26 13:00:00,
2013-06-26 09:15:00,79.5,55.0,0.00,WSW,256,4.0,8.0,43,0.00,,,0.00,Weather View 32 v70,2013-06-26 13:15:00,
2013-06-26 09:30:00,80.8,56.1,0.00,WNW,286,0.0,8.0,43,0.00,,,0.00,Weather View 32 v70,2013-06-26 13:30:00,
2013-06-26 09:45:00,80.8,56.1,0.00,WSW,248,6.0,8.0,43,0.00,,,0.00,Weather View 32 v70,2013-06-26 13:45:00,
2013-06-26 10:00:00,81.5,55.4,0.00,West,266,5.0,8.0,41,0.00,,,0.00,Weather View 32 v70,2013-06-26 14:00:00,
2013-06-26 10:15:00,81.1,55.8,0.00,West,265,4.0,9.0,42,0.00,,,0.00,Weather View 32 v70,2013-06-26 14:15:00,
2013-06-26 10:30:00,80.1,54.8,0.00,West,266,5.0,10.0,42,0.00,,,0.00,Weather View 32 v70,2013-06-26 14:30:00,
2013-06-26 10:45:00,79.5,56.2,0.00,West,271,3.0,10.0,45,0.00,,,0.00,Weather View 32 v70,2013-06-26 14:45:00,
2013-06-26 11:00:00,79.5,56.2,0.00,WSW,238,0.0,10.0,45,0.00,,,0.00,Weather View 32 v70,2013-06-26 15:00:00,
2013-06-26 11:15:00,79.5,58.0,0.00,SW,226,3.0,10.0,48,0.00,,,0.00,Weather View 32 v70,2013-06-26 15:15:00,
2013-06-26 11:30:00,79.2,58.3,0.00,West,269,3.0,6.0,49,0.00,,,0.00,Weather View 32 v70,2013-06-26 15:30:00,
2013-06-26 11:45:00,78.4,57.6,0.00,WNW,295,3.0,5.0,49,0.00,,,0.00,Weather View 32 v70,2013-06-26 15:45:00,
2013-06-26 12:00:00,78.4,59.3,0.00,West,275,3.0,5.0,52,0.00,,,0.00,Weather View 32 v70,2013-06-26 16:00:00,
2013-06-26 12:15:00,77.7,59.2,0.00,West,273,4.0,5.0,53,0.00,,,0.00,Weather View 32 v70,2013-06-26 16:15:00,
2013-06-26 12:30:00,77.2,60.2,0.00,West,275,0.0,5.0,56,0.00,,,0.00,Weather View 32 v70,2013-06-26 16:30:00,
2013-06-26 12:45:00,77.2,58.7,0.00,West,270,2.0,5.0,53,0.00,,,0.00,Weather View 32 v70,2013-06-26 16:45:00,
2013-06-26 13:00:00,77.7,59.7,0.00,West,280,0.0,4.0,54,0.00,,,0.00,Weather View 32 v70,2013-06-26 17:00:00,
2013-06-26 13:15:00,77.9,59.3,0.00,West,268,0.0,5.0,53,0.00,,,0.00,Weather View 32 v70,2013-06-26 17:15:00,
2013-06-26 13:30:00,77.7,59.2,0.00,WSW,244,5.0,5.0,53,0.00,,,0.00,Weather View 32 v70,2013-06-26 17:30:00,
2013-06-26 13:45:00,79.3,60.1,0.00,WNW,288,0.0,5.0,52,0.00,,,0.00,Weather View 32 v70,2013-06-26 17:45:00,
2013-06-26 14:00:00,80.2,59.3,0.00,West,267,3.0,7.0,49,0.00,,,0.00,Weather View 32 v70,2013-06-26 18:00:00,
2013-06-26 14:15:00,80.8,58.0,0.00,WSW,251,3.0,7.0,46,0.00,,,0.00,Weather View 32 v70,2013-06-26 18:15:00,
2013-06-26 14:30:00,81.0,58.2,0.00,NNE,19,0.0,7.0,46,0.00,,,0.00,Weather View 32 v70,2013-06-26 18:30:00,
2013-06-26 14:45:00,81.0,56.3,0.00,SW,230,4.0,7.0,43,0.00,,,0.00,Weather View 32 v70,2013-06-26 18:45:00,
2013-06-26 15:00:00,81.7,58.8,0.00,WNW,285,0.0,6.0,46,0.00,,,0.00,Weather View 32 v70,2013-06-26 19:00:00,
2013-06-26 15:15:00,81.5,59.8,0.00,SSW,210,0.0,5.0,48,0.00,,,0.00,Weather View 32 v70,2013-06-26 19:15:00,
2013-06-26 15:30:00,81.9,59.6,0.00,WNW,302,4.0,5.0,47,0.00,,,0.00,Weather View 32 v70,2013-06-26 19:30:00,
2013-06-26 15:45:00,81.9,59.6,0.00,WSW,243,3.0,6.0,47,0.00,,,0.00,Weather View 32 v70,2013-06-26 19:45:00,
2013-06-26 16:00:00,82.2,59.9,0.00,West,281,0.0,6.0,47,0.00,,,0.00,Weather View 32 v70,2013-06-26 20:00:00,
2013-06-26 16:15:00,82.2,59.9,0.00,ESE,123,3.0,6.0,47,0.00,,,0.00,Weather View 32 v70,2013-06-26 20:15:00,
2013-06-26 16:30:00,81.9,61.9,0.00,WSW,249,0.0,6.0,51,0.00,,,0.00,Weather View 32 v70,2013-06-26 20:30:00,
2013-06-26 16:45:00,81.9,59.6,0.00,South,191,0.0,6.0,47,0.00,,,0.00,Weather View 32 v70,2013-06-26 20:45:00,
2013-06-26 17:00:00,82.0,62.6,0.00,West,276,0.0,6.0,52,0.00,,,0.00,Weather View 32 v70,2013-06-26 21:00:00,
2013-06-26 17:15:00,82.0,62.1,0.00,West,275,0.0,4.0,51,0.00,,,0.00,Weather View 32 v70,2013-06-26 21:15:00,
2013-06-26 17:30:00,82.2,60.5,0.00,WNW,288,0.0,4.0,48,0.00,,,0.00,Weather View 32 v70,2013-06-26 21:30:00,
2013-06-26 17:45:00,81.3,59.1,0.00,West,271,0.0,5.0,47,0.00,,,0.00,Weather View 32 v70,2013-06-26 21:45:00,
2013-06-26 18:00:00,80.6,60.2,0.00,West,276,0.0,5.0,50,0.00,,,0.00,Weather View 32 v70,2013-06-26 22:00:00,
2013-06-26 18:15:00,80.4,60.6,0.00,West,276,0.0,5.0,51,0.00,,,0.00,Weather View 32 v70,2013-06-26 22:15:00,
2013-06-26 18:30:00,80.4,57.7,0.00,West,280,2.0,5.0,46,0.00,,,0.00,Weather View 32 v70,2013-06-26 22:30:00,
2013-06-26 18:45:00,81.3,58.5,0.00,West,272,0.0,4.0,46,0.00,,,0.00,Weather View 32 v70,2013-06-26 22:45:00,
2013-06-26 19:00:00,81.0,60.5,0.00,North,0,0.0,4.0,50,0.00,,,0.00,Weather View 32 v70,2013-06-26 23:00:00,
2013-06-26 19:14:00,81.3,59.7,0.00,NW,312,2.0,4.0,48,0.00,,,0.00,Weather View 32 v70,2013-06-26 23:14:00,
2013-06-26 19:30:00,81.0,58.2,0.00,West,275,0.0,4.0,46,0.00,,,0.00,Weather View 32 v70,2013-06-26 23:30:00,
2013-06-26 19:45:00,81.0,59.9,0.00,ENE,60,4.0,4.0,49,0.00,,,0.00,Weather View 32 v70,2013-06-26 23:45:00,
2013-06-26 20:00:00,79.7,59.9,0.00,North,6,0.0,4.0,51,0.00,,,0.00,Weather View 32 v70,2013-06-27 00:00:00,
2013-06-26 20:15:00,78.8,59.6,0.00,North,357,0.0,4.0,52,0.00,,,0.00,Weather View 32 v70,2013-06-27 00:15:00,
2013-06-26 20:30:00,78.1,59.5,0.00,North,5,0.0,4.0,53,0.00,,,0.00,Weather View 32 v70,2013-06-27 00:30:00,
2013-06-26 20:45:00,77.4,59.9,0.00,North,6,0.0,4.0,55,0.00,,,0.00,Weather View 32 v70,2013-06-27 00:45:00,
2013-06-26 21:00:00,76.8,59.9,0.00,North,6,0.0,3.0,56,0.00,,,0.00,Weather View 32 v70,2013-06-27 01:00:00,
2013-06-26 21:15:00,76.1,61.2,0.00,North,6,0.0,0.0,60,0.00,,,0.00,Weather View 32 v70,2013-06-27 01:15:00,
2013-06-26 21:30:00,75.4,60.9,0.00,North,6,0.0,0.0,61,0.00,,,0.00,Weather View 32 v70,2013-06-27 01:30:00,
2013-06-26 21:45:00,75.0,61.5,0.00,North,6,0.0,0.0,63,0.00,,,0.00,Weather View 32 v70,2013-06-27 01:45:00,
2013-06-26 22:00:00,74.8,61.8,0.00,North,6,0.0,0.0,64,0.00,,,0.00,Weather View 32 v70,2013-06-27 02:00:00,
2013-06-26 22:15:00,74.5,61.9,0.00,North,6,0.0,0.0,65,0.00,,,0.00,Weather View 32 v70,2013-06-27 02:15:00,
2013-06-26 22:30:00,74.1,62.4,0.00,North,6,0.0,0.0,67,0.00,,,0.00,Weather View 32 v70,2013-06-27 02:30:00,
2013-06-26 22:45:00,73.8,62.1,0.00,North,6,0.0,0.0,67,0.00,,,0.00,Weather View 32 v70,2013-06-27 02:45:00,
2013-06-26 23:00:00,73.8,62.5,0.00,North,6,0.0,0.0,68,0.00,,,0.00,Weather View 32 v70,2013-06-27 03:00:00,
2013-06-26 23:15:00,73.4,62.6,0.00,North,6,0.0,0.0,69,0.00,,,0.00,Weather View 32 v70,2013-06-27 03:15:00,
2013-06-26 23:30:00,72.9,62.5,0.00,North,6,0.0,0.0,70,0.00,,,0.00,Weather View 32 v70,2013-06-27 03:30:00,
2013-06-26 23:35:00,72.9,62.5,0.00,North,6,0.0,0.0,70,0.00,,,0.00,Weather View 32 v70,2013-06-27 03:35:00,
2013-06-26 23:45:00,73.0,62.6,0.00,North,6,0.0,0.0,70,0.00,,,0.00,Weather View 32 v70,2013-06-27 03:45:00,